| time (UTC) | temp F | wind direction | speed MPH | gust MPH | rain 1hr in | rain 24hr in | rain mn in | humidity % | barometer mb |
| 20260507140003 | 64 | 99 | 5.0 | 15.0 | 0.00 | 0.27 | 0.00 | 58 | 1013.2 |
| 20260507135403 | 64 | 74 | 5.0 | 13.0 | 0.00 | 0.27 | 0.00 | 57 | 1013.3 |
| 20260507134524 | 65 | 100 | 5.0 | 13.0 | 0.00 | 0.27 | 0.00 | 56 | 1013.2 |
| 20260507133603 | 65 | 109 | 7.0 | 13.0 | 0.00 | 0.27 | 0.00 | 55 | 1013.3 |
| 20260507132703 | 64 | 90 | 7.0 | 11.0 | 0.00 | 0.27 | 0.00 | 53 | 1013.4 |
| 20260507131824 | 65 | 97 | 5.0 | 13.0 | 0.00 | 0.27 | 0.00 | 57 | 1013.5 |
| 20260507130903 | 65 | 118 | 5.0 | 12.0 | 0.00 | 0.27 | 0.00 | 58 | 1013.5 |
| 20260507130003 | 64 | 84 | 6.0 | 15.0 | 0.00 | 0.27 | 0.00 | 57 | 1013.7 |
| 20260507125424 | 64 | 78 | 7.0 | 15.0 | 0.00 | 0.27 | 0.00 | 58 | 1013.6 |
| 20260507124503 | 65 | 82 | 7.0 | 15.0 | 0.00 | 0.27 | 0.00 | 57 | 1013.5 |
| 20260507123603 | 65 | 83 | 5.0 | 12.0 | 0.00 | 0.27 | 0.00 | 58 | 1013.7 |
| 20260507122724 | 64 | 67 | 6.0 | 15.0 | 0.00 | 0.27 | 0.00 | 58 | 1013.6 |
| 20260507121824 | 63 | 54 | 8.0 | 16.0 | 0.00 | 0.27 | 0.00 | 61 | 1013.6 |
| 20260507120924 | 63 | 58 | 7.0 | 15.0 | 0.00 | 0.27 | 0.00 | 61 | 1013.4 |
| 20260507120003 | 63 | 65 | 8.0 | 15.0 | 0.00 | 0.27 | 0.00 | 62 | 1013.5 |
| 20260507115403 | 63 | 59 | 8.0 | 15.0 | 0.00 | 0.27 | 0.00 | 61 | 1013.5 |
| 20260507114503 | 64 | 76 | 7.0 | 16.0 | 0.00 | 0.27 | 0.00 | 60 | 1013.8 |
| 20260507113624 | 63 | 71 | 8.0 | 16.0 | 0.00 | 0.27 | 0.00 | 63 | 1013.8 |
| 20260507112724 | 63 | 62 | 8.0 | 16.0 | 0.00 | 0.27 | 0.00 | 61 | 1014.0 |
| 20260507111824 | 63 | 48 | 9.0 | 15.0 | 0.00 | 0.27 | 0.00 | 61 | 1014.1 |
| 20260507110903 | 63 | 54 | 6.0 | 14.0 | 0.00 | 0.27 | 0.00 | 59 | 1013.9 |
| 20260507110003 | 62 | 58 | 7.0 | 13.0 | 0.00 | 0.27 | 0.00 | 61 | 1014.1 |
| 20260507105403 | 62 | 71 | 8.0 | 14.0 | 0.00 | 0.27 | 0.00 | 61 | 1014.2 |
| 20260507104503 | 62 | 71 | 8.0 | 14.0 | 0.00 | 0.27 | 0.00 | 62 | 1013.9 |
| 20260507103603 | 63 | 76 | 5.0 | 11.0 | 0.00 | 0.27 | 0.00 | 62 | 1014.1 |
| 20260507102703 | 63 | 59 | 8.0 | 11.0 | 0.00 | 0.27 | 0.00 | 63 | 1014.1 |
| 20260507101824 | 63 | 74 | 6.0 | 13.0 | 0.00 | 0.27 | 0.00 | 63 | 1014.3 |
| 20260507100903 | 63 | 49 | 6.0 | 12.0 | 0.00 | 0.27 | 0.00 | 64 | 1014.5 |
| 20260507100003 | 62 | 50 | 6.0 | 11.0 | 0.00 | 0.27 | 0.00 | 64 | 1014.3 |
| 20260507095403 | 63 | 47 | 6.0 | 11.0 | 0.00 | 0.27 | 0.00 | 62 | 1014.3 |
| 20260507094524 | 62 | 49 | 5.0 | 11.0 | 0.00 | 0.27 | 0.00 | 62 | 1014.6 |
| 20260507093603 | 63 | 39 | 4.0 | 9.0 | 0.00 | 0.27 | 0.00 | 63 | 1014.2 |
| 20260507092703 | 62 | 35 | 4.0 | 9.0 | 0.00 | 0.27 | 0.00 | 60 | 1014.2 |
| 20260507091803 | 61 | 44 | 4.0 | 7.0 | 0.00 | 0.27 | 0.00 | 64 | 1014.3 |
| 20260507090903 | 61 | 43 | 4.0 | 7.0 | 0.00 | 0.27 | 0.00 | 64 | 1014.1 |
| 20260507090004 | 62 | 9 | 4.0 | 6.0 | 0.00 | 0.27 | 0.00 | 63 | 1014.1 |
| 20260507085403 | 61 | 21 | 3.0 | 6.0 | 0.00 | 0.27 | 0.00 | 63 | 1014.0 |
| 20260507084506 | 61 | 36 | 4.0 | 6.0 | 0.00 | 0.27 | 0.00 | 67 | 1014.1 |
| 20260507083603 | 60 | 3 | 4.0 | 6.0 | 0.00 | 0.27 | 0.00 | 70 | 1014.0 |
| 20260507082701 | 61 | 355 | 3.0 | 6.0 | 0.00 | 0.27 | 0.00 | 71 | 1014.3 |
| 20260507081822 | 61 | 42 | 2.0 | 5.0 | 0.00 | 0.27 | 0.00 | 69 | 1014.3 |
| 20260507080901 | 61 | 30 | 2.0 | 5.0 | 0.00 | 0.27 | 0.00 | 72 | 1014.5 |
| 20260507080001 | 59 | 259 | 1.0 | 4.0 | 0.00 | 0.27 | 0.00 | 76 | 1014.5 |
| 20260507075401 | 59 | 291 | 1.0 | 4.0 | 0.00 | 0.27 | 0.00 | 75 | 1014.5 |
| 20260507074501 | 58 | 313 | 2.0 | 7.0 | 0.00 | 0.27 | 0.00 | 80 | 1014.7 |
| 20260507073601 | 58 | 135 | 2.0 | 5.0 | 0.00 | 0.27 | 0.00 | 82 | 1014.4 |
| 20260507072701 | 58 | 245 | 2.0 | 5.0 | 0.00 | 0.27 | 0.00 | 84 | 1014.4 |
| 20260507071801 | 57 | 218 | 2.0 | 5.0 | 0.00 | 0.27 | 0.00 | 84 | 1014.3 |
| 20260507070901 | 56 | 325 | 2.0 | 5.0 | 0.00 | 0.27 | 0.00 | 86 | 1014.3 |
| 20260507070001 | 56 | 345 | 1.0 | 4.0 | 0.00 | 0.27 | 0.00 | 87 | 1014.2 |
| 20260507065401 | 55 | 67 | 1.0 | 4.0 | 0.00 | 0.27 | 0.00 | 90 | 1014.4 |
| 20260507064522 | 55 | 134 | 2.0 | 4.0 | 0.00 | 0.27 | 0.00 | 91 | 1014.2 |
| 20260507063601 | 54 | 170 | 2.0 | 4.0 | 0.00 | 0.27 | 0.00 | 91 | 1014.2 |
| 20260507062701 | 53 | 118 | 2.0 | 5.0 | 0.00 | 0.27 | 0.00 | 92 | 1014.3 |
| 20260507061801 | 53 | 161 | 2.0 | 4.0 | 0.00 | 0.27 | 0.00 | 93 | 1014.1 |
| 20260507060901 | 53 | 142 | 2.0 | 4.0 | 0.00 | 0.27 | 0.00 | 93 | 1013.9 |
| 20260507060001 | 53 | 136 | 1.0 | 4.0 | 0.00 | 0.27 | 0.00 | 94 | 1014.0 |
| 20260507055401 | 52 | 146 | 2.0 | 4.0 | 0.00 | 0.27 | 0.00 | 94 | 1013.9 |
| 20260507054501 | 52 | 128 | 1.0 | 4.0 | 0.00 | 0.27 | 0.00 | 96 | 1014.1 |
| 20260507053601 | 51 | 180 | 1.0 | 3.0 | 0.00 | 0.27 | 0.00 | 96 | 1014.0 |
| 20260507052701 | 51 | 172 | 1.0 | 3.0 | 0.00 | 0.27 | 0.00 | 96 | 1013.8 |
| 20260507051801 | 50 | 112 | 2.0 | 3.0 | 0.00 | 0.27 | 0.00 | 96 | 1013.8 |
| 20260507050922 | 50 | 141 | 2.0 | 4.0 | 0.00 | 0.27 | 0.00 | 96 | 1013.7 |
| 20260507050001 | 49 | 99 | 2.0 | 4.0 | 0.00 | 0.27 | 0.00 | 96 | 1013.7 |
| 20260507045401 | 49 | 98 | 1.0 | 3.0 | 0.00 | 0.27 | 0.00 | 96 | 1013.5 |
| 20260507044501 | 49 | 74 | 1.0 | 3.0 | 0.00 | 0.27 | 0.00 | 96 | 1013.5 |
| 20260507043601 | 49 | 119 | 1.0 | 3.0 | 0.00 | 0.27 | 0.00 | 96 | 1013.5 |
| 20260507042701 | 49 | 170 | 1.0 | 3.0 | 0.00 | 0.27 | 0.00 | 96 | 1013.5 |
| 20260507041801 | 50 | 117 | 1.0 | 3.0 | 0.00 | 0.27 | 0.00 | 96 | 1013.6 |
| 20260507040922 | 50 | 92 | 1.0 | 3.0 | 0.00 | 0.27 | 0.00 | 96 | 1013.7 |
| 20260507040002 | 50 | 66 | 1.0 | 3.0 | 0.00 | 0.27 | 0.00 | 96 | 1013.5 |
| 20260507035422 | 50 | 141 | 2.0 | 5.0 | 0.00 | 0.27 | 0.00 | 96 | 1013.7 |
| 20260507034501 | 50 | 150 | 2.0 | 5.0 | 0.00 | 0.27 | 0.00 | 96 | 1013.5 |
| 20260507033601 | 50 | 116 | 2.0 | 4.0 | 0.00 | 0.27 | 0.00 | 96 | 1013.3 |
| 20260507032702 | 50 | 86 | 2.0 | 4.0 | 0.00 | 0.27 | 0.00 | 96 | 1013.3 |
| 20260507031801 | 50 | 150 | 1.0 | 4.0 | 0.00 | 0.27 | 0.00 | 95 | 1013.4 |
| 20260507030901 | 50 | 139 | 1.0 | 4.0 | 0.00 | 0.27 | 0.00 | 95 | 1013.5 |
| 20260507030023 | 51 | 116 | 1.0 | 4.0 | 0.00 | 0.27 | 0.00 | 95 | 1013.4 |
| 20260507025403 | 51 | 103 | 2.0 | 4.0 | 0.00 | 0.27 | 0.00 | 96 | 1013.4 |
| 20260507024502 | 51 | 143 | 2.0 | 4.0 | 0.00 | 0.27 | 0.00 | 96 | 1013.5 |
| 20260507023602 | 51 | 126 | 2.0 | 5.0 | 0.00 | 0.27 | 0.00 | 96 | 1013.5 |
| 20260507022701 | 51 | 65 | 2.0 | 5.0 | 0.00 | 0.27 | 0.00 | 95 | 1013.4 |
| 20260507021802 | 51 | 108 | 2.0 | 6.0 | 0.00 | 0.27 | 0.00 | 95 | 1013.6 |
| 20260507020923 | 51 | 131 | 2.0 | 6.0 | 0.00 | 0.27 | 0.00 | 95 | 1013.5 |
| 20260507020002 | 51 | 137 | 2.0 | 6.0 | 0.00 | 0.27 | 0.00 | 95 | 1013.4 |
| 20260507015402 | 52 | 86 | 3.0 | 7.0 | 0.00 | 0.27 | 0.00 | 95 | 1013.5 |
| 20260507014502 | 52 | 91 | 2.0 | 7.0 | 0.00 | 0.27 | 0.00 | 95 | 1013.5 |
| 20260507013602 | 52 | 136 | 1.0 | 5.0 | 0.00 | 0.27 | 0.00 | 95 | 1013.6 |
| 20260507012702 | 52 | 143 | 2.0 | 5.0 | 0.00 | 0.27 | 0.00 | 95 | 1013.8 |
| 20260507011802 | 52 | 93 | 2.0 | 5.0 | 0.00 | 0.27 | 0.00 | 95 | 1013.9 |
| 20260507010902 | 52 | 150 | 2.0 | 5.0 | 0.00 | 0.27 | 0.00 | 95 | 1013.8 |
| 20260507010002 | 52 | 120 | 2.0 | 5.0 | 0.00 | 0.27 | 0.00 | 95 | 1013.9 |
| 20260507005423 | 52 | 77 | 3.0 | 6.0 | 0.00 | 0.27 | 0.00 | 95 | 1014.2 |
| 20260507004502 | 53 | 20 | 3.0 | 7.0 | 0.00 | 0.27 | 0.00 | 95 | 1014.1 |
| 20260507003602 | 52 | 169 | 1.0 | 4.0 | 0.00 | 0.27 | 0.00 | 95 | 1014.2 |
| 20260507002723 | 52 | 84 | 2.0 | 5.0 | 0.00 | 0.27 | 0.00 | 94 | 1014.3 |
| 20260507001802 | 53 | 136 | 2.0 | 5.0 | 0.00 | 0.27 | 0.00 | 95 | 1014.1 |
| 20260507000902 | 53 | 125 | 1.0 | 5.0 | 0.00 | 0.27 | 0.00 | 95 | 1014.2 |
| 20260507000023 | 53 | 141 | 2.0 | 5.0 | 0.00 | 0.27 | 0.00 | 94 | 1014.4 |
| 20260506235402 | 53 | 130 | 2.0 | 6.0 | 0.00 | 0.27 | 0.00 | 94 | 1014.3 |
| 20260506234502 | 53 | 141 | 2.0 | 8.0 | 0.00 | 0.27 | 0.00 | 94 | 1014.3 |
| 20260506233602 | 53 | 86 | 2.0 | 6.0 | 0.00 | 0.27 | 0.00 | 94 | 1014.2 |
| 20260506232702 | 53 | 113 | 1.0 | 4.0 | 0.00 | 0.27 | 0.00 | 94 | 1014.6 |
| 20260506231802 | 53 | 71 | 1.0 | 3.0 | 0.00 | 0.27 | 0.00 | 94 | 1014.2 |
| 20260506230923 | 53 | 78 | 1.0 | 3.0 | 0.00 | 0.27 | 0.00 | 94 | 1014.2 |
| 20260506230002 | 54 | 144 | 1.0 | 3.0 | 0.00 | 0.27 | 0.00 | 93 | 1014.5 |
| 20260506225402 | 54 | 228 | 0.0 | 3.0 | 0.00 | 0.27 | 0.00 | 94 | 1014.3 |
| 20260506224502 | 54 | 99 | 0.0 | 2.0 | 0.00 | 0.27 | 0.00 | 94 | 1014.4 |
| 20260506223602 | 54 | 95 | 1.0 | 3.0 | 0.00 | 0.27 | 0.00 | 94 | 1014.3 |
| 20260506222702 | 54 | 98 | 1.0 | 3.0 | 0.00 | 0.27 | 0.00 | 93 | 1014.3 |
| 20260506221802 | 54 | 116 | 2.0 | 4.0 | 0.00 | 0.27 | 0.00 | 93 | 1014.3 |
| 20260506220902 | 54 | 148 | 3.0 | 5.0 | 0.00 | 0.27 | 0.00 | 93 | 1014.1 |
| 20260506220002 | 54 | 141 | 2.0 | 4.0 | 0.00 | 0.27 | 0.00 | 93 | 1014.3 |
| 20260506215402 | 54 | 156 | 2.0 | 4.0 | 0.00 | 0.27 | 0.27 | 93 | 1014.4 |
| 20260506214502 | 55 | 213 | 0.0 | 3.0 | 0.00 | 0.27 | 0.27 | 93 | 1014.6 |
| 20260506213602 | 55 | 127 | 1.0 | 3.0 | 0.00 | 0.27 | 0.27 | 92 | 1014.5 |
| 20260506212702 | 55 | 122 | 2.0 | 3.0 | 0.00 | 0.27 | 0.27 | 92 | 1014.4 |
| 20260506211802 | 55 | 134 | 2.0 | 4.0 | 0.00 | 0.27 | 0.27 | 91 | 1014.4 |
| 20260506210902 | 55 | 125 | 2.0 | 3.0 | 0.00 | 0.27 | 0.27 | 91 | 1014.4 |
| 20260506210002 | 55 | 191 | 1.0 | 4.0 | 0.00 | 0.27 | 0.27 | 91 | 1014.4 |
| 20260506205402 | 55 | 295 | 1.0 | 5.0 | 0.00 | 0.27 | 0.27 | 90 | 1014.4 |
| 20260506204523 | 56 | 347 | 2.0 | 5.0 | 0.00 | 0.27 | 0.27 | 90 | 1014.3 |
| 20260506203602 | 56 | 353 | 2.0 | 7.0 | 0.00 | 0.27 | 0.27 | 90 | 1014.2 |
| 20260506202702 | 56 | 345 | 4.0 | 9.0 | 0.00 | 0.27 | 0.27 | 89 | 1014.3 |
| 20260506201802 | 56 | 343 | 5.0 | 12.0 | 0.00 | 0.27 | 0.27 | 90 | 1014.1 |
| 20260506200902 | 57 | 346 | 3.0 | 9.0 | 0.00 | 0.27 | 0.27 | 91 | 1014.0 |
| 20260506200002 | 57 | 1 | 4.0 | 9.0 | 0.00 | 0.27 | 0.27 | 91 | 1014.2 |
| 20260506195402 | 57 | 11 | 3.0 | 7.0 | 0.00 | 0.27 | 0.27 | 91 | 1013.8 |
| 20260506194502 | 57 | 15 | 3.0 | 6.0 | 0.00 | 0.27 | 0.27 | 91 | 1013.7 |
| 20260506193602 | 57 | 9 | 3.0 | 6.0 | 0.01 | 0.27 | 0.27 | 91 | 1013.7 |
| 20260506192702 | 57 | 355 | 2.0 | 6.0 | 0.01 | 0.27 | 0.27 | 92 | 1013.4 |
| 20260506191802 | 57 | 7 | 2.0 | 9.0 | 0.01 | 0.27 | 0.27 | 92 | 1013.3 |
| 20260506190923 | 57 | 343 | 2.0 | 9.0 | 0.01 | 0.27 | 0.27 | 92 | 1013.0 |
| 20260506190023 | 57 | 334 | 0.0 | 2.0 | 0.01 | 0.27 | 0.27 | 92 | 1012.8 |
| 20260506185423 | 57 | 10 | 0.0 | 3.0 | 0.01 | 0.27 | 0.27 | 91 | 1012.9 |
| 20260506184502 | 57 | 142 | 1.0 | 3.0 | 0.01 | 0.27 | 0.27 | 91 | 1012.5 |
| 20260506183602 | 57 | 144 | 0.0 | 3.0 | 0.08 | 0.26 | 0.26 | 91 | 1012.2 |
| 20260506182702 | 57 | 79 | 1.0 | 4.0 | 0.08 | 0.26 | 0.26 | 91 | 1012.3 |
| 20260506181802 | 57 | 122 | 1.0 | 4.0 | 0.08 | 0.26 | 0.26 | 90 | 1012.5 |
| 20260506180902 | 57 | 95 | 1.0 | 4.0 | 0.08 | 0.26 | 0.26 | 90 | 1012.1 |
| 20260506180023 | 57 | 85 | 2.0 | 6.0 | 0.08 | 0.26 | 0.26 | 91 | 1011.9 |
| 20260506175402 | 57 | 95 | 3.0 | 7.0 | 0.08 | 0.26 | 0.26 | 90 | 1011.9 |
| 20260506174502 | 57 | 78 | 3.0 | 7.0 | 0.07 | 0.26 | 0.26 | 90 | 1012.1 |
| 20260506173602 | 57 | 52 | 2.0 | 6.0 | 0.00 | 0.19 | 0.19 | 89 | 1012.0 |
| 20260506172702 | 57 | 90 | 3.0 | 10.0 | 0.07 | 0.19 | 0.19 | 89 | 1012.0 |
| 20260506171802 | 57 | 63 | 4.0 | 10.0 | 0.13 | 0.19 | 0.19 | 89 | 1012.1 |
| 20260506170902 | 57 | 74 | 5.0 | 8.0 | 0.18 | 0.19 | 0.19 | 90 | 1012.0 |
| 20260506170023 | 57 | 54 | 5.0 | 9.0 | 0.19 | 0.19 | 0.19 | 89 | 1011.9 |
| 20260506165423 | 58 | 80 | 5.0 | 11.0 | 0.19 | 0.19 | 0.19 | 89 | 1012.0 |
| 20260506164502 | 58 | 71 | 5.0 | 12.0 | 0.19 | 0.19 | 0.19 | 88 | 1012.0 |
| 20260506163623 | 58 | 60 | 4.0 | 9.0 | 0.18 | 0.18 | 0.18 | 87 | 1012.2 |
| 20260506162702 | 59 | 127 | 3.0 | 7.0 | 0.12 | 0.12 | 0.12 | 83 | 1011.8 |
| 20260506161802 | 61 | 299 | 1.0 | 7.0 | 0.06 | 0.06 | 0.06 | 78 | 1011.7 |
| 20260506160902 | 62 | 208 | 3.0 | 10.0 | 0.01 | 0.01 | 0.01 | 71 | 1011.7 |
| 20260506160002 | 62 | 139 | 6.0 | 18.0 | 0.00 | 0.00 | 0.00 | 70 | 1011.4 |
| 20260506155402 | 62 | 124 | 10.0 | 19.0 | 0.00 | 0.00 | 0.00 | 70 | 1011.0 |
| 20260506154503 | 63 | 115 | 9.0 | 19.0 | 0.00 | 0.00 | 0.00 | 67 | 1010.8 |
| 20260506153623 | 64 | 122 | 8.0 | 17.0 | 0.00 | 0.00 | 0.00 | 65 | 1010.8 |
| 20260506152702 | 63 | 124 | 7.0 | 19.0 | 0.00 | 0.00 | 0.00 | 66 | 1010.6 |
| 20260506151803 | 63 | 119 | 8.0 | 19.0 | 0.00 | 0.00 | 0.00 | 66 | 1010.9 |
| 20260506150903 | 62 | 131 | 7.0 | 17.0 | 0.00 | 0.00 | 0.00 | 67 | 1011.1 |
| 20260506150003 | 62 | 113 | 9.0 | 18.0 | 0.00 | 0.00 | 0.00 | 67 | 1011.1 |
| 20260506145424 | 62 | 111 | 8.0 | 18.0 | 0.00 | 0.00 | 0.00 | 67 | 1011.1 |
| 20260506144502 | 63 | 113 | 9.0 | 17.0 | 0.00 | 0.00 | 0.00 | 66 | 1010.9 |
| 20260506143603 | 62 | 113 | 7.0 | 17.0 | 0.00 | 0.00 | 0.00 | 66 | 1011.1 |
| 20260506142703 | 64 | 119 | 8.0 | 17.0 | 0.00 | 0.00 | 0.00 | 63 | 1011.1 |
| 20260506141824 | 64 | 102 | 8.0 | 18.0 | 0.00 | 0.00 | 0.00 | 62 | 1011.2 |
| 20260506140903 | 65 | 117 | 7.0 | 17.0 | 0.00 | 0.00 | 0.00 | 61 | 1011.1 |